Regional Weather Roundup
Issued by NWS

Home | Current Version | Previous Version | Graphics & Text | Print | Product List | Glossary On
Versions: 1 2 3 4 5 6 7 8 9 10 11 12 13 14 15 16 17 18 19 20 21 22 23 24 25 26 27 28 29 30 31 32 33 34 35 36 37 38 39 40 41 42 43 44 45 46 47 48 49 50
000
ASUS43 KTOP 272259
RWRKS

WEATHER ROUNDUP FOR KANSAS
NATIONAL WEATHER SERVICE GOODLAND KS
500 PM CST THU NOV 27 2014

NOTE:  "FAIR" INDICATES FEW OR NO CLOUDS BELOW 12,000 FEET WITH NO
SIGNIFICANT WEATHER AND/OR OBSTRUCTIONS TO VISIBILITY.

KSZ001>006-013>018-027>032-041>047-280000-
NORTHWEST KANSAS

CITY           SKY/WX    TMP DP  RH WIND       PRES   REMARKS
GOODLAND       MOCLDY    60  25  26 S12       30.06F
HAYS           CLOUDY    46  21  36 S12       30.16S
HILL CITY      PTCLDY    50  24  36 S9        30.11F
RUSSELL        MOCLDY    45  22  40 S13       30.17F
$$

KSZ061>065-074>080-084>089-280000-
SOUTHWEST KANSAS

CITY           SKY/WX    TMP DP  RH WIND       PRES   REMARKS
DODGE CITY     PTCLDY    50  23  34 S16       30.18R
ELKHART          N/A     60  30  32 S12         N/A
GARDEN CITY    PTCLDY    52  28  39 S13       30.13F
GREAT BEND     MOCLDY    46  21  36 SE16      30.20F
LIBERAL        PTCLDY    59  30  33 S12       30.18S
$$

KSZ066>073-081>083-090>101-280000-
SOUTHEAST KANSAS

CITY           SKY/WX    TMP DP  RH WIND       PRES   REMARKS
CHANUTE        CLEAR     37  22  54 SE8       30.37F
COFFEYVILLE    CLEAR     42  22  44 S7        30.39F
HUTCHINSON     PTCLDY    43  18  36 S15       30.26F
MEDICINE LODGE   N/A     47  21  35 S8G17     30.24F
NEWTON         PTCLDY    41  14  33 S13       30.30F
PARSONS        CLEAR     41  21  44 SE6       30.39F
WICHITA INTL   MOCLDY    43  18  36 S12       30.30F
WICHITA JABRA  PTCLDY    42  15  33 S13       30.30S
WINFIELD       CLEAR     42  20  41 S8        30.33F
$$

KSZ007>012-019>026-033>040-048>060-102>105-280000-
NORTHEAST KANSAS

CITY           SKY/WX    TMP DP  RH WIND       PRES   REMARKS
CONCORDIA      CLEAR     39  17  41 S12       30.22F WCI  32
EMPORIA        CLEAR     37  19  48 SE10      30.32F WCI  30
LAWRENCE       PTCLDY    33  21  61 SE7       30.37F
MANHATTAN      PTCLDY    41  16  36 S8        30.30F
OLATHE IND     PTCLDY    36  21  54 SE8       30.37F
OLATHE EXE     CLEAR     35  20  54 S7        30.36F
SALINA         CLEAR     42  17  36 S12       30.26F
TOPEKA BILLARD MOCLDY    38  21  50 SE12      30.34F WCI  30
TOPEKA FORBES  MOCLDY    39  20  46 SE9       30.33F
$$


USA.gov is the U.S. government's official web portal to all federal, state and local government web resources and services.